Location: Waco, TX
(31.5480°N, 97.1670°W)
Time: 22:21:37
(UTC-06:00)

ISS - Pass Details

Date: 14 February 2019
Orbit: 403 x 411 km, 51.6° (Epoch: 22 February)

Event Time Altitude Azimuth Distance (km) Brightness Sun altitude
Rises 18:14:43 0° 299° (WNW) 2,327 0.8 -0.8°
Reaches altitude 10° 18:17:08 10° 283° (WNW) 1,465 0.3 -1.3°
Maximum altitude 18:19:40 21° 232° (SW) 984 -0.7 -1.9°
Drops below altitude 10° 18:22:12 10° 181° (S) 1,462 -0.8 -2.4°
Sets 18:24:36 0° 165° (SSE) 2,319 0.0 -2.9°
